THORAD DELTA 1 DEB, 8567

Orbit data source: Space-Track

THORAD DELTA 1 DEB, 8567 is space debris in LEO originally from a launch on Fri, 15 Nov 1974 UTC launched from the Air Force Western Test Range (AFWTR). Debris objects in space refer to the collection of defunct objects orbiting the Earth. Examples of debris include non-operational satellites, rocket bodies, and fragments generated from explosions, collisions, or faulty payload assembly.

Loading next visibility...
Identifier
8567, 1974-089DE
Orbit
LEO
Country
Flag of USUS
Related business
Manufacturer
Unknown
Mission
Spacecraft
Bus & Motor
Unknown
Mass
Unknown
Launch date (UTC)
1974-11-15 (51 years ago)
Launch vehicle
Unknown
Launch site
Air Force Western Test Range (AFWTR)
Object type
Payload
Rocket body
Debris
Shape & HBR
Unknown shape, 0.1 m
Radar Cross Section
Small (<0.1 m²)

Expand to show TLE details & history
Last TLE update: 6 hours ago

TLE from 6 hours ago
0 THORAD DELTA 1 DEB
1  8567U 74089DE  26130.22970293  .00001576  00000-0  24660-1 0  9998
2  8567 100.6221  27.0549 0707683  41.4516 104.1491 11.34122073121513
Epoch: 2026-05-10T05:30Z
TLE epoch observation values (Epoch: 2026-05-10T05:30:46.333Z)
Latitude
26.26164°
Longitude
-98.38859°
Altitude
2,175.899 km
Speed
6.754 km/s
True Right ascension
14h 09m 21s
True Declination
26° 08' 53"
Sunlit
Object was in full shadow at epoch
Visualization orbit readout
Latitude
Unknown
Longitude
Unknown
Altitude
Unknown
Speed
Unknown
Apparent Right ascension
Unknown
Apparent Declination
Unknown
Sunlit
N/A
Visualization observer readout
Local Sidereal Time
19:34:08
Azimuth
Unknown
Elevation
Unknown
Doppler factor
Unknown
Orbital elements
Apogee altitude
2,579.652 km
Perigee altitude
1,395.591 km
Semi-major axis
8,365.759 km
Eccentricity
0.07077
Inclination
100.6221°
RAAN
27.0549°
Arg. of periapsis
41.4516°
True anomaly
111.82302°
Mean anomaly
104.1491°
Eccentric anomaly
108.00526°
Mean motion
2.83652 °/min
Orbital period
126.92 mins
BSTAR
0.02466
Loading maneuver chart data...
Computing Atmospheric mass density...
Loading historical data...
Loading historical data...
Loading historical data...
Loading historical data...
Loading historical data...
Loading historical data...
Loading historical data...

Documentation

Showing up to 5 results
|